Location: *
(47.6569°N, 7.4256°E)
Time: 20:21:47
(UTC+00:00)

Envisat - Visible Passes

Search period start: 23 February 2020 00:00
Search period end: 04 March 2020 00:00
Orbit: 764 x 766 km, 98.1° (Epoch: 23 February)

Date Brightness Start Highest point End Pass type
(mag) Time Alt. Az. Time Alt. Az. Time Alt. Az.
23 Feb 6.1 04:57:28 10° NE 05:00:51 18° E 05:04:13 10° SE visible
23 Feb 4.8 17:53:38 10° SSW 17:58:19 37° W 18:03:03 10° NNW visible
24 Feb 6.6 19:00:13 10° W 19:01:17 11° W 19:02:21 10° WNW visible
25 Feb 5.3 05:22:11 10° NE 05:26:36 29° E 05:30:59 10° SSE visible
25 Feb 5.7 18:20:03 10° SW 18:24:01 23° W 18:28:00 10° NW visible
26 Feb 6.4 04:46:45 10° NE 04:49:24 14° E 04:52:03 10° ESE visible
26 Feb 4.3 17:42:05 10° S 17:46:57 46° W 17:51:51 10° NNW visible
27 Feb 6.3 18:47:19 10° WSW 18:49:49 14° W 18:52:18 10° WNW visible
28 Feb 5.7 05:11:08 10° NE 05:15:12 24° E 05:19:13 10° SE visible
28 Feb 5.4 18:08:17 10° SSW 18:12:36 28° W 18:16:58 10° NW visible
29 Feb 6.6 04:36:30 10° ENE 04:37:56 11° E 04:39:22 10° ESE visible
01 Mar 4.8 05:36:07 10° NNE 05:40:53 39° E 05:45:37 10° SSE visible
01 Mar 6.2 18:35:06 10° SW 18:38:22 17° W 18:41:38 10° NW visible
02 Mar 6.1 05:00:10 10° NE 05:03:46 19° E 05:07:21 10° SE visible
02 Mar 5.0 17:56:37 10° SSW 18:01:13 34° W 18:05:51 10° NNW visible
